Notices

What's New in latest Release from April 7th, 2021:

- Updated Glossary, including Speed of Maximum Gust, and Total Hourly Precipitation

- Updated national and regional climate services offices contacts and prices information

- Addition of station inventory lists for 1981-2010, 1971-2000, and 1961-1990 Normals.

If you haven't already, please take our survey and provide feedback about our website: https://eccc.sondage-survey.ca/f/LanguageSelection.aspx?s=442ca660-fcf1-47c0-95a9-59707d6fd709

Hourly Data Report for November 14, 2018

CARBERRY CS
MANITOBA
Current Station Operator: ECCC - MSC

49°54'20.900" N
99°21'26.800" W
383.50 m
5010547
71170
WZE

Download Data

Hourly Data (November 2018)
Hourly Data Report for November 14, 2018
TIME
LST
Temp Definition
°C
Dew Point Definition
°C
Rel Hum Definition
%
Precip. Amount Definition
mm

Wind Dir Definition
10's deg

Wind Spd Definition
km/h
Visibility Definition
km
Stn Press Definition
kPa
Hmdx Definition


Wind Chill Definition


Weather Definition


00:00 -11.0 -12.6 88 0.0 10 8   97.47   -16 LegendNANA
01:00 -10.0 -11.3 90 0.0 11 9   97.45   -15 LegendNANA
02:00 -10.8 -12.1 90 0.0 11 6   97.43   -14 LegendNANA
03:00 -9.6 -10.8 91 0.0 13 9   97.36   -14 LegendNANA
04:00 -8.8 -10.1 90 0.0 10 8   97.24   -13 LegendNANA
05:00 -9.3 -10.6 91 0.0 12 6   97.15   -13 LegendNANA
06:00 -11.3 -13.0 88 0.0 10 4   97.14   -14 LegendNANA
07:00 -8.3 -9.6 90 0.0 16 8   97.00   -12 LegendNANA
08:00 -7.8 -9.2 90 0.0 15 10   96.90   -13 LegendNANA
09:00 -6.8 -8.3 89 0.0 16 6   96.84   -10 LegendNANA
10:00 -5.5 -7.3 87 0.0 16 8   96.74   -9 LegendNANA
11:00 -4.3 -6.4 85 0.0 18 10   96.72   -8 LegendNANA
12:00 -2.8 -5.5 82 0.0 18 11   96.62   -7 LegendNANA
13:00 -1.4 -4.8 77 0.0 19 12   96.43   -5 LegendNANA
14:00 0.7 -3.3 75 0.0 21 11   96.33     LegendNANA
15:00 0.8 -2.9 76 0.0 21 9   96.26     LegendNANA
16:00 1.1 -2.6 76 0.0 24 10   96.22     LegendNANA
17:00 0.1 -2.8 81 0.0 24 10   96.13     LegendNANA
18:00 -1.2 -3.3 85 0.0 27 10   96.18   -5 LegendNANA
19:00 -1.0 -3.0 86 0.0 27 9   96.13   -4 LegendNANA
20:00 -0.5 -2.9 84 0.0 26 12   96.08   -4 LegendNANA
21:00 -2.7 -4.7 86 0.0 27 8   96.06   -6 LegendNANA
22:00 -5.3 -6.4 91 0.0 26 12   96.13   -10 LegendNANA
23:00 -5.3 -6.3 92 0.0 27 11   96.10   -10 LegendNANA

Notes on Data Quality.

Legend

  • E = Estimated
  • M = Missing
  • NA = Not Available*
  • [empty] = Indicates an unobserved value
Date modified: